Volver al catálogo

STARLINK-35509

ActivoComunicacionesVLEO
NORAD 66199·PAYLOAD·🇺🇸 United States

Lanzado Oct 26, 2025 desde Cape Canaveral Space Force Station

Loading…

Próximos Pases (próximas 24 horas)

TLE

ActualizadoSource: CelesTrak SupGP

Época: Sep 14, 2026, 21:17 UTC

1 66199C 25243Y   26257.88729167  .00001776  00000+0  52477-4 0  2573
2 66199  53.1603  85.8737 0001501  81.6404 105.7450 15.34384522    19

Sigue STARLINK-35509 en tiempo real con AllMySat

Download on the App Store